KC5EZZ-2 Weather Reports


Display with metric or nautical units.
time (UTC)temp
F
wind
direction
speed
MPH
gust
MPH
rain 1hr
in
rain 24hr
in
rain mn
in
humidity
%
barometer
mb
20181213152123 46 346 11.0 15.0 0.00 0.00 0.00 71 937.0
20181213135614 50 320 18.0 22.0 0.00 0.00 0.00 46 937.0
20181213133603 49 313 11.0 17.0 0.00 0.00 0.00 55 935.0
20181213131055 47 304 8.0 13.0 0.00 0.00 0.00 76 935.0
20181213130554 47 294 9.0 11.0 0.00 0.00 0.00 78 935.0
20181213125054 47 298 7.0 10.0 0.00 0.00 0.00 80 934.0
20181213124052 47 298 10.0 14.0 0.00 0.00 0.00 82 934.0
20181213123550 47 274 8.0 12.0 0.00 0.00 0.00 81 934.0
20181213123052 48 300 7.0 11.0 0.00 0.00 0.00 80 934.0
20181213122554 48 291 7.0 12.0 0.00 0.00 0.00 80 934.0
20181213121551 48 283 12.0 16.0 0.00 0.00 0.00 81 934.0
20181213120551 48 280 9.0 13.0 0.00 0.00 0.00 82 933.0
20181213120054 49 275 11.0 16.0 0.00 0.00 0.00 83 933.0
20181213115554 49 280 11.0 14.0 0.00 0.00 0.00 84 933.0
20181213114056 48 280 10.0 13.0 0.00 0.00 0.00 90 933.0
20181213113548 48 276 8.0 12.0 0.00 0.00 0.00 92 933.0
20181213113050 49 261 10.0 13.0 0.00 0.00 0.00 92 933.0
20181213112551 49 255 9.0 12.0 0.00 0.00 0.00 93 933.0
20181213111552 48 257 10.0 12.0 0.00 0.00 0.00 93 933.0
20181213110552 48 251 7.0 8.0 0.00 0.00 0.00 92 933.0
20181213110052 48 258 7.0 10.0 0.00 0.00 0.00 92 933.0
20181213105549 48 254 8.0 10.0 0.00 0.00 0.00 92 933.0
20181213105203 48 262 7.0 10.0 0.00 0.00 0.00 92 933.0
20181213105046 48 262 7.0 10.0 0.00 0.00 0.00 92 933.0
20181213104049 48 241 6.0 9.0 0.00 0.00 0.00 92 934.0
20181213103547 48 228 7.0 9.0 0.00 0.00 0.00 92 934.0
20181213101549 48 264 7.0 14.0 0.00 0.00 0.00 92 934.0
20181213101046 49 244 8.0 12.0 0.00 0.00 0.00 92 934.0
20181213100540 49 247 12.0 13.0 0.00 0.00 0.00 92 934.0
20181213095538 49 259 9.0 15.0 0.00 0.00 0.00 92 934.0
20181213095033 49 265 10.0 11.0 0.00 0.00 0.00 92 934.0
20181213093032 49 267 8.0 12.0 0.00 0.00 0.00 91 934.0
20181213092534 49 264 9.0 13.0 0.00 0.00 0.00 91 934.0
20181213092032 49 242 7.0 16.0 0.00 0.00 0.00 91 934.0
20181213085025 49 258 10.0 15.0 0.00 0.00 0.00 91 934.0
20181213084028 50 262 11.0 15.0 0.00 0.00 0.00 91 935.0
20181213083525 50 250 11.0 15.0 0.00 0.00 0.00 90 935.0
20181213083022 50 254 12.0 14.0 0.00 0.00 0.00 90 935.0
20181213081516 50 233 8.0 12.0 0.00 0.00 0.00 89 935.0
20181213081020 50 242 10.0 10.0 0.00 0.00 0.00 89 935.0
20181213080518 50 236 7.0 12.0 0.00 0.00 0.00 89 935.0
20181213075018 50 247 10.0 12.0 0.00 0.00 0.00 89 935.0
20181213074521 50 237 10.0 11.0 0.00 0.00 0.00 89 935.0
20181213074023 50 236 9.0 12.0 0.00 0.00 0.00 89 935.0
20181213073515 50 249 10.0 12.0 0.00 0.00 0.00 88 935.0
20181213073017 50 235 10.0 15.0 0.00 0.00 0.00 88 935.0
20181213071514 50 260 10.0 12.0 0.00 0.00 0.00 86 935.0
20181213070012 50 283 10.0 17.0 0.00 0.00 0.00 85 935.0
20181213065506 50 238 12.0 13.0 0.00 0.00 0.00 85 936.0
20181213065000 50 257 10.0 13.0 0.00 0.00 0.00 84 936.0
20181213064508 51 248 10.0 16.0 0.00 0.00 0.00 83 936.0
20181213064004 51 271 10.0 17.0 0.00 0.00 0.00 83 936.0
20181213063503 51 248 11.0 18.0 0.00 0.00 0.00 83 936.0
20181213063004 51 250 10.0 17.0 0.00 0.00 0.00 82 936.0
20181213060500 51 252 9.0 19.0 0.00 0.00 0.00 82 936.0
20181213060001 51 243 12.0 16.0 0.00 0.00 0.00 82 936.0
20181213055458 51 256 14.0 17.0 0.00 0.00 0.00 82 936.0
20181213054457 51 235 9.0 15.0 0.00 0.00 0.00 82 936.0
20181213053956 51 259 10.0 14.0 0.00 0.00 0.00 82 936.0
20181213053454 51 249 10.0 12.0 0.00 0.00 0.00 82 936.0
20181213051456 51 259 10.0 12.0 0.00 0.00 0.00 81 936.0
20181213050957 51 273 7.0 12.0 0.00 0.00 0.00 81 936.0
20181213050450 51 257 8.0 12.0 0.00 0.00 0.00 81 936.0
20181213045449 51 274 10.0 11.0 0.00 0.00 0.00 81 936.0
20181213044946 51 247 7.0 12.0 0.00 0.00 0.00 81 936.0
20181213043950 52 238 7.0 13.0 0.00 0.00 0.00 80 936.0
20181213043443 52 262 8.0 14.0 0.00 0.00 0.00 80 936.0
20181213042437 52 221 10.0 13.0 0.00 0.00 0.00 80 936.0
20181213041435 52 270 11.0 15.0 0.00 0.00 0.00 80 936.0
20181213040935 52 251 12.0 14.0 0.00 0.00 0.00 80 936.0
20181213035435 52 256 13.0 15.0 0.00 0.00 0.00 80 937.0
20181213034930 52 274 11.0 13.0 0.00 0.00 0.00 80 937.0
20181213033422 51 251 8.0 7.0 0.00 0.00 0.00 78 937.0
20181213032922 51 274 5.0 6.0 0.00 0.00 0.00 76 937.0
20181213032424 51 274 5.0 6.0 0.00 0.00 0.00 76 937.0
20181213031919 50 261 5.0 5.0 0.00 0.00 0.00 75 937.0
20181213025920 51 252 4.0 8.0 0.00 0.00 0.00 75 937.0
20181213025421 51 251 5.0 7.0 0.00 0.00 0.00 75 937.0
20181213024919 51 249 5.0 9.0 0.00 0.00 0.00 75 937.0
20181213023917 52 229 7.0 10.0 0.00 0.00 0.00 74 937.0
20181213023415 52 225 7.0 10.0 0.00 0.00 0.00 74 937.0
20181213022911 53 232 8.0 12.0 0.00 0.00 0.00 73 937.0
20181213021911 52 243 9.0 12.0 0.00 0.00 0.00 75 937.0
20181213021408 52 242 9.0 10.0 0.00 0.00 0.00 78 937.0
20181213020407 51 208 5.0 6.0 0.00 0.00 0.00 77 937.0
20181213015908 51 233 5.0 7.0 0.00 0.00 0.00 75 937.0
20181213015410 51 136 5.0 4.0 0.00 0.00 0.00 73 937.0
20181213014906 52 288 3.0 5.0 0.00 0.00 0.00 71 937.0
20181213014409 52 288 4.0 6.0 0.00 0.00 0.00 71 937.0
20181213013910 53 225 4.0 7.0 0.00 0.00 0.00 71 937.0
20181213013404 54 205 6.0 7.0 0.00 0.00 0.00 72 937.0
20181213012901 54 188 5.0 7.0 0.00 0.00 0.00 71 937.0
20181213011900 55 210 5.0 4.0 0.00 0.00 0.00 67 937.0
20181213005405 56 216 0.0 3.0 0.00 0.00 0.00 62 937.0
20181213004903 56 216 0.0 6.0 0.00 0.00 0.00 62 937.0
20181213004405 56 216 0.0 7.0 0.00 0.00 0.00 62 937.0
20181213003905 56 243 4.0 8.0 0.00 0.00 0.00 62 938.0
20181213003403 56 257 5.0 9.0 0.00 0.00 0.00 62 938.0
20181213002406 57 243 7.0 14.0 0.00 0.00 0.00 63 938.0
20181213000405 56 252 7.0 7.0 0.00 0.00 0.00 65 938.0
20181212235409 56 232 4.0 7.0 0.00 0.00 0.00 64 938.0
20181212233401 56 250 4.0 4.0 0.00 0.00 0.00 63 937.0
20181212232404 56 172 4.0 4.0 0.00 0.00 0.00 61 937.0
20181212225903 57 243 3.0 6.0 0.00 0.00 0.00 60 938.0
20181212224904 57 241 7.0 8.0 0.00 0.00 0.00 60 938.0
20181212222901 58 271 0.0 5.0 0.00 0.00 0.00 56 938.0
20181212221403 58 250 5.0 10.0 0.00 0.00 0.00 56 938.0
20181212220402 58 231 9.0 11.0 0.00 0.00 0.00 56 938.0
20181212214902 58 248 9.0 11.0 0.00 0.00 0.00 55 938.0
20181212214403 58 247 7.0 10.0 0.00 0.00 0.00 55 938.0
20181212213905 58 215 7.0 11.0 0.00 0.00 0.00 54 938.0
20181212211904 58 234 9.0 12.0 0.00 0.00 0.00 54 938.0
20181212210857 58 236 8.0 13.0 0.00 0.00 0.00 54 938.0
20181212205858 58 249 10.0 12.0 0.00 0.00 0.00 54 938.0
20181212204856 58 240 11.0 12.0 0.00 0.00 0.00 55 938.0
20181212203357 58 249 6.0 12.0 0.00 0.00 0.00 54 939.0
20181212202858 58 266 8.0 16.0 0.00 0.00 0.00 55 939.0
20181212201857 58 206 11.0 13.0 0.00 0.00 0.00 53 939.0
20181212201400 58 255 11.0 14.0 0.00 0.00 0.00 53 939.0
20181212200900 58 244 12.0 13.0 0.00 0.00 0.00 53 939.0
20181212200359 58 236 11.0 15.0 0.00 0.00 0.00 54 939.0
20181212195900 58 243 11.0 15.0 0.00 0.00 0.00 54 939.0
20181212194402 58 223 10.0 12.0 0.00 0.00 0.00 55 939.0
20181212190355 58 262 7.0 9.0 0.00 0.00 0.00 55 940.0
20181212182852 58 270 10.0 10.0 0.00 0.00 0.00 51 940.0
20181212175849 58 264 7.0 10.0 0.00 0.00 0.00 55 941.0
20181212175350 57 257 9.0 11.0 0.00 0.00 0.00 56 942.0
20181212173850 57 266 10.0 13.0 0.00 0.00 0.00 57 942.0
20181212172850 56 258 10.0 13.0 0.00 0.00 0.00 58 942.0
20181212171849 56 251 8.0 11.0 0.00 0.00 0.00 58 942.0
20181212165851 56 258 7.0 11.0 0.00 0.00 0.00 61 942.0
20181212164849 55 255 10.0 12.0 0.00 0.00 0.00 63 942.0
20181212163852 54 248 10.0 13.0 0.00 0.00 0.00 64 942.0
20181212162355 54 242 9.0 11.0 0.00 0.00 0.00 68 942.0
20181212161850 53 233 6.0 15.0 0.00 0.00 0.00 68 942.0